Location: Maccacari
(45.1333°N, 11.1333°E)
Time: 17:53:43
(UTC+00:00)

USA 234 - Pass Details

Date: 22 January 2021
Orbit: 1100 x 1107 km, 123.0° (Epoch: 01 March)

Event Time Altitude Azimuth Distance (km) Brightness Sun altitude
Exits shadow 18:58:34 47° 17° (NNE) 1,424 3.6 -29.6°
Drops below altitude 10° 19:04:32 10° 313° (NW) 2,967 6.1 -30.7°
Sets 19:07:06 0° 308° (NW) 3,927 6.9 -31.1°
